Terminal Aerodrome Forecast
Issued by NWS

Current Version | Previous Version | Graphics & Text | Print | Product List | Glossary On
Versions: 1 2 3 4 5 6 7 8 9 10 11 12 13 14 15 16 17 18 19 20 21 22 23 24 25 26
000
FTUS41 KRLX 151700
TAFCKB
TAF
KCKB 151725Z 1518/1618 29010KT 5SM -SHSN OVC015
     FM152000 29011G16KT P6SM OVC025
     FM152300 30013G19KT P6SM OVC040
     FM160200 31009KT P6SM BKN100
     FM160400 31006KT P6SM SCT200
     FM160800 00000KT P6SM SKC
     FM161500 01004KT P6SM SKC=

USA.gov is the U.S. government's official web portal to all federal, state and local government web resources and services.